Eastover, SC

11:54 AM EDT on August 19, 2017 (GMT -0400)
McEntire Angs

Weather History for KMMT - February, 2013

Change the Weather History Date:

Saturday, February 2, 2013

  Actual Average Record
Temperature  
Mean Temperature 38 °F -  
Max Temperature 55 °F 54 °F 75 °F (2017)
Min Temperature 22 °F 35 °F 22 °F (2013)
Degree Days  
Heating Degree Days 26    
Moisture  
Dew Point 15 °F    
Average Humidity 40    
Maximum Humidity 75    
Minimum Humidity 19    
Precipitation  
Precipitation 0.00 in - - ()
Sea Level Pressure  
Sea Level Pressure 30.27 in    
Wind  
Wind Speed 4 mph (SSW)    
Max Wind Speed 20 mph    
Max Gust Speed 28 mph    
Visibility 10 miles    
Events      
Averages and records for this station are not official NWS values.
T = Trace of Precipitation, MM = Missing Value Source: NWS Daily Summary

Daily Weather History Graph

Daily Weather History Graph

Search for Another Location

Airport or City:

Trip Planner

Search our weather history database for the weather conditions in past years. The results will help you decide how hot, cold, wet, or windy it might be!

Date:

Astronomy

Feb. 02, 2013 Rise Set
Actual Time 7:19 AM EST 5:55 PM EST
Civil Twilight 6:53 AM EST 6:21 PM EST
Nautical Twilight 6:23 AM EST 6:51 PM EST
Astronomical Twilight 5:53 AM EST 7:20 PM EST
Moon No Moon Rise 10:50 AM EST (2/2)
Length of Visible Light 11h 28m
Length of Day
10h 36m
Waning Gibbous, 60% of the Moon is Illuminated
Feb 2
Waning Gibbous
Feb 3
Last Quarter
Feb 10
New
Feb 17
First Quarter
Feb 25
Full

Hourly Weather History & Observations

Time (EST) Temp. Windchill Dew Point Humidity Pressure Visibility Wind Dir Wind Speed Gust Speed Precip Events Conditions
12:55 AM 23.9 °F - 17.1 °F 75% 30.38 in 10.0 mi Calm Calm - N/A   Clear
1:55 AM 25.3 °F - 14.5 °F 64% 30.39 in 10.0 mi Calm Calm - N/A   Clear
2:55 AM 23.9 °F - 14.0 °F 66% 30.39 in 10.0 mi Calm Calm - N/A   Clear
3:55 AM 26.4 °F 22.4 °F 8.4 °F 47% 30.39 in 10.0 mi NE 3.5 mph - N/A   Clear
4:55 AM 26.2 °F 22.1 °F 9.9 °F 50% 30.38 in 10.0 mi ENE 3.5 mph - N/A   Clear
5:55 AM 24.3 °F - 10.4 °F 56% 30.40 in 10.0 mi Calm Calm - N/A   Clear
6:55 AM 22.5 °F - 15.6 °F 75% 30.40 in 10.0 mi Calm Calm - N/A   Clear
7:55 AM 24.3 °F 18.4 °F 13.8 °F 64% 30.40 in 10.0 mi East 4.6 mph - N/A   Partly Cloudy
8:55 AM 31.8 °F 25.4 °F 11.8 °F 44% 30.40 in 10.0 mi East 6.9 mph - N/A   Partly Cloudy
9:55 AM 37.2 °F 31.2 °F 10.6 °F 33% 30.38 in 10.0 mi ESE 8.1 mph - N/A   Partly Cloudy
10:55 AM 40.5 °F 35.1 °F 10.4 °F 29% 30.37 in 10.0 mi South 8.1 mph - N/A   Partly Cloudy
11:55 AM 45.7 °F 43.4 °F 12.6 °F 26% 30.33 in 10.0 mi SSE 4.6 mph - N/A   Partly Cloudy
12:55 PM 49.8 °F - 14.2 °F 24% 30.27 in 10.0 mi SW 8.1 mph - N/A   Partly Cloudy
1:55 PM 53.1 °F - 13.8 °F 21% 30.22 in 10.0 mi Variable 5.8 mph - N/A   Partly Cloudy
2:55 PM 54.7 °F - 13.6 °F 20% 30.20 in 10.0 mi SW 8.1 mph - N/A   Partly Cloudy
3:55 PM 55.8 °F - 13.1 °F 19% 30.18 in 10.0 mi WSW 9.2 mph - N/A   Partly Cloudy
4:55 PM 54.9 °F - 14.7 °F 21% 30.16 in 10.0 mi SSW 6.9 mph - N/A   Clear
5:55 PM 51.4 °F - 14.9 °F 23% 30.15 in 10.0 mi SSW 4.6 mph - N/A   Clear
6:55 PM 47.8 °F - 15.6 °F 28% 30.13 in 10.0 mi South 4.6 mph - N/A   Partly Cloudy
7:55 PM 46.8 °F - 17.6 °F 31% 30.12 in 10.0 mi South 4.6 mph - N/A   Mostly Cloudy
8:55 PM 46.9 °F - 19.2 °F 33% 30.13 in 10.0 mi West 4.6 mph - N/A   Mostly Cloudy
9:55 PM 48.7 °F - 19.2 °F 31% 30.14 in 8.0 mi West 10.4 mph 18.4 mph N/A   Clear
10:55 PM 50.5 °F - 25.7 °F 38% 30.11 in 10.0 mi WSW 19.6 mph 27.6 mph N/A   Partly Cloudy
11:55 PM 47.5 °F - 30.0 °F 51% 30.09 in 10.0 mi West 15.0 mph - N/A   Mostly Cloudy